Overview Statistics Trail Chart Weather Telemetry Raw packets
 

This is the latest recevied weather packets stored in our database for station/object KI4NG. If no packets are shown the sender has not sent any weather packets the latest 10 day(s).

<< 104 105 106 107 108 109 110 >>
Time Temp. Humidity Pressure Rain* Wind** Luminosity Snow
1787837387 22.78° C 92% 1018.5 hPa 0 mm - 126 W/m² -
1787837083 22.22° C 93% 1018.5 hPa 0 mm - 100 W/m² -
1787836781 22.22° C 93% 1018.2 hPa 0 mm - 269 W/m² -
1787836477 22.22° C 94% 1018.6 hPa 0 mm - 91 W/m² -
1787836172 21.67° C 95% 1018.3 hPa 0 mm - 196 W/m² -
1787835868 21.67° C 96% 1018.5 hPa 0 mm - 135 W/m² -
1787835567 21.11° C 97% 1018.7 hPa 0 mm - 131 W/m² -
1787835262 20.56° C 99% 1018.6 hPa 0 mm - 111 W/m² -
1787834957 20° C 99% 1018.3 hPa 0 mm - 107 W/m² -
1787834656 20° C 99% 1018.3 hPa 0 mm - 93 W/m² -
1787834346 19.44° C 99% 1018.1 hPa 0 mm - 81 W/m² -
1787834041 19.44° C 99% 1018.3 hPa 0 mm - 65 W/m² -
1787833737 18.89° C 99% 1018.5 hPa 0 mm - 50 W/m² -
1787833432 18.89° C 99% 1018.2 hPa 0 mm - 49 W/m² -
1787833127 18.89° C 99% 1018.3 hPa 0 mm - 52 W/m² -
1787832823 18.89° C 99% 1018.1 hPa 0 mm - 55 W/m² -
1787832518 18.89° C 99% 1018.2 hPa 0 mm - 56 W/m² -
1787832217 18.89° C 99% 1018.1 hPa 0 mm - 54 W/m² -
1787831915 18.33° C 99% 1018.3 hPa 0 mm - 51 W/m² -
1787831611 18.33° C 99% 1018.3 hPa 0 mm - 49 W/m² -
1787831310 18.33° C 99% 1018.1 hPa 0 mm - 42 W/m² -
1787831006 18.33° C 99% 1018 hPa 0 mm - 35 W/m² -
1787830706 18.33° C 99% 1017.9 hPa 0 mm - 33 W/m² -
1787830404 18.33° C 99% 1018 hPa 0 mm - 29 W/m² -
1787830099 18.33° C 99% 1017.8 hPa 0 mm - 22 W/m² -

* Rain latest hour (hover to see other rain measurements)
** Current wind speed in m/s (hover to see current wind gust speed)